Temperature
10 10 9 9 9 8 8 7 7 6 5 5 4 3 3 2 2 1 1 1 0 -0 -1 -2 -3 -4 -5 -6 -6 -7 -7 -8 -9 -8 -8 -8 -8 -8 -8 -8 -9 -9 -9
9 9 9 9 8 8 7 7 6 5 5 4 3 3 2 2 1 1 1 0 -0 -1 -2 -3 -4 -5 -6 -6 -7 -7 -8 -8 -9 -9 -9 -9 -8 -8 -9 -9 -9 -9 -9
9 9 8 8 7 7 6 6 5 5 4 3 2 2 2 1 1 0 -0 -0 -1 -2 -3 -4 -5 -6 -6 -7 -7 -8 -9 -9 -9 -9 -9 -9 -9 -9 -9 -9 -9 -9 -10
8 8 8 7 7 6 6 5 4 4 3 2 2 2 1 1 0 -0 -1 -1 -2 -3 -4 -5 -6 -6 -7 -8 -8 -9 -9 -9 -9 -9 -9 -9 -9 -9 -9 -10 -10 -10 -10
8 7 7 6 6 6 5 4 3 3 2 2 1 1 1 0 -0 -1 -2 -3 -3 -4 -5 -6 -6 -7 -8 -9 -9 -9 -9 -9 -9 -9 -9 -9 -9 -10 -10 -10 -10 -10 -10
7 7 6 6 5 5 4 3 3 2 2 1 1 0 0 -0 -1 -2 -3 -4 -5 -5 -6 -6 -7 -7 -8 -9 -9 -9 -9 -9 -9 -9 -9 -10 -10 -10 -10 -10 -10 -10 -10
6 6 6 5 5 4 3 2 2 1 1 1 0 -0 -1 -1 -2 -2 -3 -5 -6 -6 -7 -7 -8 -8 -8 -9 -9 -9 -9 -9 -9 -10 -10 -10 -10 -10 -10 -10 -10 -10 -11
6 5 5 4 4 3 2 2 1 1 1 0 -0 -1 -1 -2 -2 -3 -4 -6 -6 -7 -7 -8 -8 -8 -9 -9 -9 -9 -9 -9 -10 -10 -10 -10 -10 -10 -10 -10 -11 -11 -11
5 5 4 4 3 2 2 1 1 0 0 -0 -1 -1 -2 -2 -3 -4 -5 -6 -7 -7 -8 -8 -9 -9 -10 -9 -9 -9 -10 -9 -10 -10 -10 -10 -10 -10 -10 -11 -11 -12 -12
5 4 3 3 2 1 1 1 0 -0 -1 -1 -1 -2 -3 -3 -4 -5 -6 -8 -8 -8 -8 -9 -9 -10 -10 -9 -9 -10 -10 -10 -10 -10 -10 -9 -8 -8 -9 -10 -11 -12 -12
4 3 2 2 1 1 0 0 -0 -1 -1 -2 -2 -2 -3 -4 -5 -6 -7 -8 -9 -9 -9 -9 -9 -10 -10 -10 -10 -10 -10 -10 -10 -10 -9 -8 -8 -8 -8 -9 -9 -11 -12
3 2 2 1 1 0 -0 -0 -1 -1 -2 -2 -3 -3 -4 -5 -6 -7 -8 -9 -9 -9 -10 -10 -10 -10 -10 -10 -10 -10 -10 -11 -10 -9 -10 -9 -9 -8 -8 -8 -8 -8 -8
2 2 1 1 0 -0 -1 -1 -1 -2 -3 -3 -4 -4 -5 -6 -6 -7 -8 -9 -9 -10 -10 -10 -10 -10 -10 -9 -9 -10 -10 -10 -10 -11 -11 -9 -9 -8 -8 -8 -7 -7 -6
2 1 0 0 -0 -1 -1 -2 -2 -3 -3 -4 -5 -6 -7 -7 -7 -8 -9 -10 -10 -10 -10 -10 -10 -9 -9 -9 -9 -9 -9 -10 -11 -11 -10 -9 -8 -8 -7 -8 -8 -8 -7
1 0 -0 -1 -1 -1 -2 -2 -3 -4 -5 -6 -7 -8 -8 -8 -9 -10 -10 -10 -10 -10 -11 -10 -9 -9 -9 -9 -9 -9 -9 -9 -9 -9 -9 -9 -8 -8 -7 -7 -8 -8 -9
0 -0 -1 -1 -2 -2 -2 -3 -4 -4 -5 -6 -7 -8 -8 -8 -9 -9 -10 -10 -10 -10 -10 -10 -10 -10 -10 -10 -10 -9 -9 -9 -9 -9 -9 -9 -9 -8 -8 -7 -8 -8 -9
-0 -1 -1 -2 -2 -3 -3 -4 -4 -4 -5 -6 -7 -7 -8 -8 -8 -9 -9 -9 -9 -9 -10 -10 -10 -10 -10 -10 -10 -10 -9 -9 -8 -8 -8 -8 -8 -8 -8 -8 -8 -8 -8
-1 -1 -2 -2 -3 -3 -4 -5 -6 -6 -6 -6 -7 -7 -8 -8 -8 -9 -10 -9 -9 -9 -10 -10 -10 -10 -10 -10 -10 -9 -9 -8 -8 -8 -8 -8 -8 -8 -8 -8 -8 -8 -8
-2 -2 -3 -3 -4 -4 -5 -6 -6 -7 -7 -8 -8 -8 -8 -8 -9 -9 -9 -10 -10 -10 -10 -10 -10 -10 -10 -10 -9 -9 -8 -8 -8 -8 -8 -7 -8 -8 -7 -8 -8 -8 -8
-2 -3 -3 -4 -5 -5 -6 -6 -7 -8 -8 -8 -8 -9 -9 -10 -10 -9 -9 -10 -10 -10 -10 -10 -10 -10 -10 -9 -9 -8 -8 -7 -7 -7 -7 -7 -7 -7 -7 -7 -7 -8 -8
-3 -4 -4 -5 -5 -6 -6 -7 -8 -8 -9 -9 -9 -9 -10 -10 -10 -10 -10 -10 -10 -10 -10 -10 -10 -9 -9 -9 -8 -8 -7 -7 -7 -7 -7 -7 -7 -7 -7 -7 -7 -7 -7
-4 -4 -5 -5 -6 -7 -7 -8 -8 -9 -9 -9 -9 -9 -10 -10 -10 -10 -10 -10 -10 -10 -10 -10 -9 -9 -8 -8 -8 -7 -7 -7 -7 -7 -7 -7 -7 -7 -7 -7 -7 -7 -7
-5 -5 -6 -6 -7 -7 -8 -8 -9 -9 -9 -10 -10 -10 -10 -10 -10 -10 -10 -10 -10 -10 -10 -9 -9 -8 -8 -7 -7 -7 -7 -7 -7 -7 -7 -7 -7 -7 -7 -7 -7 -7 -7
-5 -6 -6 -7 -7 -8 -8 -9 -9 -9 -10 -10 -10 -10 -10 -10 -10 -10 -10 -10 -10 -9 -9 -9 -8 -8 -7 -7 -7 -7 -7 -7 -7 -7 -7 -7 -7 -7 -7 -7 -7 -7 -7
-6 -6 -7 -7 -8 -9 -9 -9 -10 -10 -10 -10 -10 -11 -11 -11 -10 -10 -10 -10 -9 -9 -8 -8 -8 -7 -7 -7 -7 -7 -7 -7 -7 -7 -7 -7 -7 -7 -7 -7 -7 -7 -7
-7 -7 -8 -8 -9 -9 -9 -10 -10 -10 -10 -11 -11 -11 -11 -11 -10 -10 -10 -10 -9 -8 -8 -7 -7 -7 -7 -7 -7 -7 -7 -7 -7 -7 -7 -7 -7 -7 -7 -7 -7 -7 -7
Wind_Speed
14 14 14 12 12 11 10 9 8 7 7 6 5 4 3 3 3 3 4 4 5 6 6 7 8 8 7 7 7 8 9 10 17 19 14 12 13 14 15 15 19 17 20
14 14 14 12 12 11 10 9 8 7 6 5 4 4 3 3 4 4 5 6 6 7 8 7 8 8 8 8 8 9 10 10 14 21 19 15 15 14 15 14 15 16 13
14 14 13 12 11 11 9 8 7 7 6 5 4 4 3 4 4 5 6 7 7 7 7 8 8 9 10 9 10 10 10 12 11 16 19 16 14 13 14 15 15 13 16
14 14 13 11 10 10 9 8 7 6 6 4 3 3 3 4 5 6 6 7 6 6 7 7 8 9 11 11 11 10 10 12 12 15 16 16 15 12 12 15 17 12 14
14 13 11 10 10 9 8 7 7 6 5 3 3 3 4 4 5 7 6 6 6 6 7 8 9 14 17 15 14 12 13 13 14 15 16 16 16 15 15 15 19 18 15
13 12 11 10 9 8 8 7 6 5 4 3 3 4 5 5 11 15 12 6 5 7 9 9 10 13 17 23 26 25 23 19 17 15 16 17 19 17 16 17 18 19 18
13 12 10 10 9 8 7 6 5 4 3 3 3 4 6 8 14 16 16 9 6 8 10 10 12 13 18 13 20 25 21 24 24 18 17 18 19 18 19 21 18 19 20
12 11 10 9 9 7 7 6 4 2 2 2 4 5 6 8 14 16 18 9 7 9 10 11 12 12 14 19 17 15 12 12 18 15 13 16 17 17 17 18 18 19 18
12 11 9 9 9 7 6 4 3 2 2 3 4 5 6 9 14 17 18 7 7 9 10 10 12 12 22 27 19 16 15 13 19 23 24 24 28 28 22 15 14 15 18
11 10 9 9 8 7 5 3 2 1 2 4 5 5 7 8 14 18 19 7 8 9 8 9 16 20 26 28 17 14 16 17 16 16 17 20 17 18 22 13 12 14 15
11 11 9 8 8 7 5 3 2 2 4 5 6 7 7 9 13 18 20 9 9 10 11 9 10 24 27 28 23 13 19 21 15 14 14 14 13 12 12 12 12 12 14
12 11 9 8 6 5 5 3 3 3 5 5 6 7 6 7 11 16 20 19 19 12 12 11 14 26 27 26 19 20 25 21 12 12 13 13 13 13 13 15 15 14 15
12 10 8 7 6 5 4 3 3 3 3 5 5 6 7 6 9 18 20 22 23 14 12 20 24 26 23 17 19 24 19 12 12 12 13 13 12 12 14 13 14 13 16
11 9 7 6 5 4 3 2 2 3 4 5 6 7 8 7 8 8 8 11 16 14 12 16 21 21 18 17 17 14 11 11 13 12 13 13 12 12 12 11 13 14 13
10 7 6 5 4 3 2 2 3 3 5 7 5 5 8 8 12 21 16 12 12 13 15 8 9 11 11 11 11 11 11 12 12 12 12 13 14 13 13 11 11 12 12
8 6 4 4 3 2 3 4 6 6 11 12 13 13 11 16 21 21 21 22 22 21 14 10 11 11 12 13 13 14 13 12 12 12 13 12 13 13 14 13 11 12 13
8 6 4 3 2 2 2 3 6 7 10 12 14 17 17 20 21 21 21 21 20 18 9 9 11 11 12 12 12 13 14 14 12 12 12 13 12 12 13 13 13 12 13
7 6 4 3 2 1 2 3 4 6 8 8 12 17 19 20 20 20 21 17 12 11 8 10 11 12 12 13 13 13 14 14 13 12 13 12 12 12 13 13 12 13 13
6 4 3 2 1 2 3 3 4 5 6 8 8 11 16 18 18 18 17 9 10 11 10 11 11 12 12 13 13 13 13 14 14 13 13 13 12 12 12 12 12 17 14
5 5 4 2 2 2 3 4 4 5 6 7 8 9 11 11 8 11 10 9 10 11 11 12 12 13 13 13 13 13 13 14 14 13 13 13 12 12 13 14 13 12 11
4 4 4 3 2 3 3 4 4 5 6 8 8 11 17 10 9 10 10 10 10 11 12 12 13 13 13 12 12 13 15 14 14 13 13 13 13 12 12 11 12 11 9
3 2 2 2 2 3 4 4 5 6 7 8 9 11 16 9 8 10 10 11 11 11 12 12 13 12 12 13 13 14 15 15 15 14 14 13 13 12 12 10 9 8 7
3 2 2 2 3 6 5 5 5 6 7 8 9 10 10 9 10 10 11 11 12 12 12 12 13 13 13 13 13 13 14 15 15 16 15 14 12 11 9 8 8 7 6
3 2 2 3 3 4 5 5 6 7 8 9 9 9 9 9 10 11 12 11 12 13 12 12 14 17 21 17 14 14 14 16 16 14 15 12 10 9 7 6 6 5 5
3 2 2 3 4 4 5 6 7 7 8 9 9 9 10 10 11 11 11 11 12 14 16 16 13 15 19 23 22 18 23 26 20 12 8 8 8 8 7 6 5 4 3
3 3 3 3 4 5 5 6 7 8 8 9 9 9 10 10 11 11 11 11 12 14 15 15 16 20 23 20 21 24 26 22 18 16 9 6 7 6 6 4 5 4 4
Wind_Direction
124 121 119 116 114 110 108 107 107 103 100 95 87 71 46 22 358 343 320 308 302 295 291 283 277 276 272 267 264 264 265 270 286 296 297 298 293 292 295 287 285 282 285
124 120 118 117 113 109 108 107 107 103 97 94 85 65 34 5 340 326 313 310 299 296 294 292 288 291 280 277 274 272 273 271 282 295 301 302 296 294 294 291 298 296 289
123 121 119 117 114 113 112 110 106 103 95 84 74 52 13 340 322 308 295 292 290 289 291 291 290 289 288 285 280 280 280 285 284 292 297 299 298 298 299 299 295 290 292
123 122 121 120 119 117 115 110 106 104 95 79 61 32 352 323 306 294 289 288 289 292 291 288 287 286 286 287 291 284 291 295 292 292 295 300 302 301 302 307 306 298 296
124 122 122 120 117 114 111 107 102 94 88 73 46 10 344 319 305 306 299 295 295 295 293 287 287 300 305 306 308 308 305 300 300 302 304 306 307 311 310 308 305 305 297
124 124 125 122 117 114 111 107 99 87 72 48 23 354 336 328 322 326 326 306 292 294 298 295 294 297 302 312 311 307 305 306 308 307 308 306 306 306 306 306 306 306 305
125 127 127 123 118 115 112 102 92 81 53 21 356 340 323 316 328 329 325 324 300 293 293 297 304 307 312 298 298 304 305 305 307 305 302 300 301 304 305 305 304 302 300
127 128 127 123 118 113 104 95 84 71 35 358 332 325 319 321 332 328 324 326 296 287 287 289 293 295 301 307 307 309 303 300 300 301 293 294 298 301 302 304 303 301 297
132 133 130 126 121 113 103 92 80 49 8 335 321 324 322 319 328 325 325 305 295 292 291 292 302 302 307 314 318 314 311 308 310 307 305 306 307 308 309 308 307 308 305
136 130 123 120 118 113 106 95 71 33 345 333 326 322 314 307 319 325 325 303 303 302 298 293 309 314 314 320 321 317 316 313 313 315 313 309 304 303 307 306 303 302 304
126 119 114 112 113 111 101 86 56 20 357 343 326 316 308 310 321 324 323 322 311 312 314 312 307 316 320 323 325 319 311 316 320 317 312 308 307 306 307 305 299 295 295
120 115 112 107 104 102 93 72 44 19 354 337 322 315 303 302 315 319 323 324 323 318 315 313 314 320 325 325 324 317 320 325 319 312 310 311 312 311 310 307 301 292 281
116 114 111 103 92 90 84 57 23 6 344 321 310 309 310 306 310 319 321 323 325 322 312 316 320 324 326 324 318 320 325 320 312 311 311 310 307 302 304 306 304 300 294
118 115 112 104 91 68 60 48 12 336 320 312 310 310 309 308 306 304 306 317 323 320 315 317 324 324 322 319 320 319 315 310 313 310 308 306 307 307 308 309 311 315 313
114 112 106 97 90 62 32 351 321 277 282 310 303 302 315 313 315 324 328 324 325 321 326 324 323 322 323 322 319 317 317 316 315 311 309 310 310 311 310 313 309 313 310
115 109 102 94 78 54 8 335 324 321 323 324 324 323 318 316 322 328 329 329 330 331 333 325 321 321 320 319 319 318 317 316 315 313 309 307 307 308 309 311 311 311 312
115 114 103 93 72 29 354 335 325 326 325 326 327 328 326 325 328 330 332 333 333 334 330 319 317 317 315 314 312 311 311 311 311 308 306 305 306 305 306 308 311 313 313
103 102 101 92 64 2 325 312 306 313 320 318 324 327 329 329 328 332 335 337 330 331 321 317 315 313 312 310 309 309 309 310 309 308 306 304 303 304 305 306 308 309 312
101 94 89 76 35 338 317 310 305 305 307 310 314 322 329 327 327 331 337 330 321 321 319 316 312 310 308 307 306 305 305 305 305 305 304 302 303 303 302 302 304 308 312
86 77 77 61 14 338 322 315 314 312 312 313 316 320 321 322 327 328 328 321 320 317 316 313 310 306 306 305 304 305 305 304 304 303 302 302 301 299 298 300 302 305 307
84 58 45 36 355 327 317 316 315 313 312 312 311 315 324 329 322 318 319 320 319 315 313 310 307 306 304 303 303 302 302 302 301 300 300 299 299 299 299 298 298 300 305
82 63 32 359 338 324 325 324 316 312 310 309 311 315 324 325 316 317 317 316 313 310 308 306 303 301 301 301 301 301 300 299 299 298 298 298 297 297 296 296 299 305 310
75 52 23 357 338 336 339 321 314 311 308 308 310 315 319 319 318 316 315 314 312 310 309 306 303 302 302 301 298 294 292 292 291 291 292 294 295 297 299 302 306 313 320
68 46 13 347 334 326 319 314 312 312 312 311 312 314 315 315 313 312 312 311 311 310 308 307 303 302 303 306 304 300 294 291 290 289 290 295 302 307 310 312 316 323 327
55 29 0 338 325 318 314 311 310 311 312 313 312 313 314 313 311 311 311 311 310 309 309 310 307 308 308 308 307 304 305 309 317 325 319 319 319 320 323 327 334 343 353
31 4 340 323 312 306 305 307 309 310 309 309 309 310 310 310 309 309 311 311 313 313 312 312 310 310 310 310 307 310 318 328 338 344 345 330 331 337 342 348 357 8 14
Height
1455 1461 1466 1470 1474 1478 1481 1483 1485 1485 1485 1485 1485 1484 1483 1481 1479 1476 1474 1471 1467 1464 1460 1455 1451 1447 1443 1439 1434 1430 1425 1419 1407 1393 1390 1385 1380 1374 1369 1365 1360 1355 1348
1454 1460 1465 1469 1473 1477 1479 1481 1482 1483 1483 1483 1482 1481 1480 1478 1475 1472 1469 1466 1462 1458 1454 1449 1445 1440 1436 1431 1426 1421 1417 1412 1404 1392 1382 1377 1372 1367 1361 1355 1350 1345 1339
1454 1459 1464 1469 1472 1475 1478 1479 1480 1481 1481 1480 1480 1478 1476 1474 1471 1468 1464 1461 1457 1452 1448 1443 1438 1433 1428 1424 1419 1414 1409 1404 1398 1390 1378 1371 1365 1360 1353 1346 1341 1334 1328
1454 1459 1464 1468 1471 1474 1476 1477 1478 1478 1478 1478 1477 1475 1473 1470 1467 1463 1459 1455 1451 1447 1442 1437 1432 1427 1421 1416 1412 1407 1402 1396 1390 1382 1373 1366 1359 1353 1347 1338 1329 1323 1317
1454 1459 1463 1467 1470 1472 1474 1475 1476 1476 1476 1475 1473 1471 1469 1466 1462 1458 1454 1449 1445 1440 1436 1432 1426 1421 1417 1412 1408 1401 1395 1389 1382 1375 1367 1360 1352 1346 1340 1332 1323 1313 1306
1454 1458 1462 1466 1468 1470 1472 1473 1474 1474 1473 1472 1470 1468 1465 1461 1457 1453 1449 1444 1439 1434 1429 1425 1420 1415 1410 1406 1400 1395 1391 1384 1377 1370 1361 1354 1346 1340 1333 1326 1318 1308 1296
1454 1458 1462 1465 1467 1469 1470 1471 1471 1471 1470 1469 1466 1463 1460 1456 1452 1448 1444 1439 1434 1429 1424 1418 1413 1409 1404 1397 1391 1387 1383 1378 1373 1366 1356 1348 1341 1334 1328 1319 1312 1305 1295
1453 1457 1461 1463 1465 1467 1468 1469 1469 1469 1467 1465 1462 1459 1455 1452 1447 1443 1438 1433 1428 1424 1419 1413 1407 1401 1396 1391 1385 1379 1373 1368 1363 1357 1350 1343 1336 1329 1323 1316 1307 1297 1288
1453 1456 1459 1462 1464 1465 1466 1467 1467 1466 1464 1462 1458 1455 1451 1447 1442 1438 1433 1427 1422 1418 1413 1408 1402 1396 1390 1386 1379 1372 1364 1358 1353 1348 1343 1337 1330 1323 1317 1309 1300 1292 1280
1452 1455 1458 1460 1462 1464 1465 1465 1464 1463 1460 1458 1455 1451 1446 1442 1437 1433 1428 1422 1417 1411 1407 1402 1397 1391 1385 1380 1373 1365 1357 1350 1344 1338 1333 1327 1321 1315 1310 1304 1296 1288 1278
1451 1454 1457 1459 1461 1462 1463 1462 1461 1459 1457 1454 1451 1448 1443 1438 1433 1428 1423 1418 1413 1407 1401 1395 1390 1385 1380 1374 1367 1360 1353 1347 1340 1333 1325 1319 1313 1308 1303 1297 1291 1284 1275
1451 1454 1456 1458 1460 1461 1461 1460 1458 1456 1453 1449 1446 1442 1439 1434 1429 1423 1419 1414 1409 1403 1396 1389 1384 1379 1373 1366 1360 1354 1349 1342 1335 1327 1320 1314 1308 1301 1296 1290 1284 1278 1271
1450 1453 1456 1457 1459 1459 1458 1457 1455 1452 1449 1445 1441 1436 1432 1428 1424 1419 1414 1409 1403 1398 1391 1385 1379 1373 1366 1360 1354 1349 1343 1336 1329 1323 1316 1310 1304 1297 1290 1283 1277 1270 1264
1450 1453 1455 1456 1457 1457 1456 1454 1451 1448 1445 1440 1436 1432 1427 1423 1418 1413 1408 1403 1397 1392 1385 1379 1373 1367 1361 1356 1350 1344 1338 1333 1327 1320 1313 1306 1299 1292 1286 1279 1271 1263 1254
1450 1453 1454 1455 1455 1454 1453 1451 1448 1445 1442 1437 1433 1428 1423 1417 1414 1410 1405 1398 1393 1387 1380 1373 1367 1361 1355 1350 1344 1339 1334 1328 1322 1316 1309 1302 1295 1288 1282 1275 1268 1260 1253
1450 1452 1453 1453 1453 1452 1450 1448 1445 1443 1439 1435 1430 1426 1420 1416 1410 1405 1400 1394 1388 1382 1376 1370 1363 1358 1352 1346 1340 1334 1329 1324 1318 1312 1305 1299 1292 1285 1278 1272 1266 1259 1252
1450 1451 1451 1451 1450 1449 1447 1444 1441 1439 1436 1431 1427 1422 1417 1411 1406 1400 1395 1389 1384 1378 1372 1366 1361 1355 1349 1344 1338 1332 1326 1320 1314 1308 1302 1295 1289 1282 1275 1269 1263 1257 1250
1449 1450 1450 1449 1448 1446 1443 1440 1436 1432 1429 1425 1422 1417 1412 1407 1401 1396 1390 1384 1379 1374 1369 1363 1357 1352 1346 1341 1335 1329 1322 1316 1310 1304 1298 1292 1286 1279 1273 1267 1261 1255 1249
1448 1448 1448 1447 1445 1443 1440 1437 1433 1429 1425 1420 1416 1411 1407 1401 1397 1392 1386 1381 1374 1369 1364 1359 1354 1349 1343 1337 1331 1325 1319 1312 1306 1300 1295 1289 1283 1277 1271 1265 1260 1254 1249
1447 1447 1446 1444 1442 1439 1436 1433 1429 1425 1421 1416 1411 1406 1401 1395 1391 1387 1382 1377 1372 1366 1361 1356 1351 1346 1340 1334 1328 1321 1315 1309 1303 1297 1291 1285 1280 1274 1269 1263 1258 1253 1248
1445 1444 1443 1441 1439 1436 1433 1429 1426 1422 1417 1413 1408 1404 1398 1393 1388 1383 1378 1373 1368 1363 1358 1352 1347 1342 1336 1330 1324 1318 1312 1306 1300 1294 1288 1282 1277 1271 1267 1262 1257 1252 1248
1443 1442 1440 1438 1435 1432 1429 1426 1422 1418 1414 1409 1404 1400 1396 1391 1385 1380 1375 1370 1366 1361 1356 1350 1344 1339 1333 1327 1321 1314 1308 1302 1296 1290 1284 1279 1274 1269 1264 1260 1256 1252 1248
1441 1439 1437 1435 1432 1429 1426 1423 1419 1415 1410 1406 1401 1396 1391 1387 1382 1377 1372 1367 1362 1358 1353 1347 1341 1336 1330 1324 1318 1312 1305 1299 1293 1287 1281 1276 1271 1267 1263 1259 1255 1251 1248
1438 1436 1434 1431 1429 1426 1422 1419 1415 1411 1407 1402 1397 1393 1388 1383 1379 1374 1369 1364 1360 1355 1350 1345 1339 1333 1328 1322 1316 1310 1304 1297 1291 1285 1280 1275 1271 1266 1262 1258 1254 1251 1248
1435 1433 1431 1428 1425 1422 1419 1415 1412 1407 1403 1399 1394 1390 1385 1380 1376 1371 1367 1362 1357 1352 1347 1342 1337 1331 1326 1320 1314 1308 1302 1296 1291 1285 1280 1275 1270 1266 1262 1258 1255 1252 1250
1433 1430 1428 1425 1422 1419 1415 1411 1408 1404 1400 1395 1391 1387 1382 1378 1373 1369 1364 1360 1355 1350 1345 1340 1335 1330 1324 1318 1312 1306 1301 1295 1290 1284 1279 1274 1270 1266 1262 1259 1256 1254 1252